Voltar ao catálogo

COSMOS 1801

AtivoMilitarLEO
NORAD 17145·PAYLOAD·🇷🇺 Russia

Lançado Nov 21, 1986 de Plesetsk Cosmodrome

Loading…

Próximas Passagens (próximas 24 horas)

TLE

AtualizadoSource: Space-Track

Época: Sep 14, 2026, 09:50 UTC

1 17145U 86092H   26257.41023450 -.00000020  00000-0 -21933-4 0  9990
2 17145  74.0108 236.0295 0055209 228.9029 204.6809 12.58855737829661

Acompanhe COSMOS 1801 em tempo real com AllMySat

Download on the App Store